Regional Weather Roundup
Issued by NWS

Home | Current Version | Previous Version | Graphics & Text | Print | Product List | Glossary On
Versions: 1 2 3 4 5 6 7 8 9 10 11 12 13 14 15 16 17 18 19 20 21 22 23 24 25 26 27 28 29 30 31 32 33 34 35 36 37 38 39 40 41 42 43 44 45 46 47 48 49 50
455
ASUS43 KMPX 250301
RWRMN
WEATHER ROUNDUP FOR MINNESOTA
NATIONAL WEATHER SERVICE TWIN CITIES/CHANHASSEN MN
900 PM CST SAT FEB 24 2018


NOTE: "FAIR" INDICATES FEW OR NO CLOUDS BELOW 12,000 FEET WITH NO
SIGNIFICANT WEATHER AND/OR OBSTRUCTIONS TO VISIBILITY. N/A MEANS
CURRENT SKY AND/OR WEATHER CONDITIONS ARE NOT AVAILABLE.

MNZ060>063-068>070-250400-
   Twin Cities Metro

CITY           SKY/WX    TMP DP  RH WIND       PRES   REMARKS
TWIN CITIES    SNOW      29  29 100 E5        29.51F VSB 1/2 WCI  24
ST PAUL        LGT SNOW  29  29 100 E5        29.52F VSB 3/4 WCI  24
CRYSTAL        LGT SNOW  28  26  92 CALM      29.50F VSB 3/4
BLAINE         LGT SNOW  30  30 100 MISG      29.51F VSB 1
LAKEVILLE      LGT SNOW  27  27 100 E3        29.51F
EDEN PRAIRIE   LGT SNOW  28  26  92 CALM      29.50F VSB 3/4
SOUTH ST PAUL  MIX PCPN  30  30  99 CALM      29.51F
LAKE ELMO      LGT SNOW  30  30 100 E5        29.52F VSB 3/4 WCI  25
$$
MNZ001>005-007-008-013>017-022>024-027-028-250400-
   Northwest Minnesota

CITY           SKY/WX    TMP DP  RH WIND       PRES   REMARKS
BEMIDJI        LGT SNOW  19  17  94 NE3       29.57F VSB 3/4
HALLOCK        LGT SNOW  18  16  93 SE5       29.66F WCI  11
ROSEAU         CLOUDY    19  12  73 CALM      29.66F
WARROAD        FAIR      21  12  68 CALM      29.66F
THIEF RVR FALL LGT SNOW  18  16  92 E9        29.64F FOG     WCI   7
CROOKSTON      LGT SNOW  21  19  93 E6        29.64F WCI  14
FOSSTON        LGT SNOW  18  12  79 NE5       29.61F WCI  11
DETROIT LAKES  LGT SNOW  21  19  93 CALM      29.57F
MOORHEAD       LGT SNOW  18  16  93 NW8       29.63F WCI   7
PARK RAPIDS    LGT SNOW  20  16  84 NE7       29.54F VSB 1   WCI  11
MAHNOMEN       LGT SNOW  19  17  90 NE7       29.60F WCI  10
$$
MNZ006-009>011-018-025>026-250400-
   North Central Minnesota

CITY           SKY/WX    TMP DP  RH WIND       PRES   REMARKS
BAUDETTE       CLOUDY    23  11  60 CALM      29.62F
FLAG ISLAND    CLOUDY    21  10  63 CALM      29.66F
INTL FALLS     CLOUDY    24  15  68 NE6       29.63F WCI  17
WASKISH        LGT SNOW  21  19  93 E9        29.62F WCI  11
LONGVILLE      LGT SNOW  21  19  93 N5        29.55F VSB 1   WCI  15
GRAND RAPIDS   SNOW      22  21  96 N5        29.57F VSB 1/2 WCI  16
CRANE LAKE     SNOW      21  19  93 CALM      29.64F VSB 1/2
ORR            LGT SNOW  21  18  86 CALM      29.58F
COOK           LGT SNOW  21  19  93 NE5       29.58F VSB 3/4 WCI  15
WALKER         LGT SNOW  19  17  92 NE5       29.56F VSB 1   WCI  12
$$
MNZ012-019>021-037-250400-
   Northeast Minnesota

CITY           SKY/WX    TMP DP  RH WIND       PRES   REMARKS
DULUTH         SNOW      25  22  88 E21G35    29.53F VSB 1/4 WCI  11
ELY            LGT SNOW  23  21  93 E13G20    29.57F WCI  11
HIBBING        SNOW      23  22  96 E8        29.53F VSB 1/2 WCI  14
DULUTH HARBOR  LGT SNOW  27  25  93 E26G32    29.59F VSB 3/4 WCI  11
TWO HARBORS    SNOW      28  23  80 NE17G25   29.55F VSB 1/2 WCI  16
GRAND MARAIS     N/A     28  20  71 NE16G25   29.72F WCI  16
G MARAIS ARPRT FLURRIES  21  14  73 NE12      29.66F WCI   9
$$
MNZ029>031-032-039>041-046>048-054>057-064-250400-
   West Central Minnesota

CITY           SKY/WX    TMP DP  RH WIND       PRES   REMARKS
FERGUS FALLS   LGT SNOW  19  18  93 CALM      29.58F
WHEATON        LGT SNOW  16  14  93 W5        29.61F WCI   9
MORRIS         LGT SNOW  19  18  93 W6        29.56F WCI  11
ALEXANDRIA     LGT SNOW  20  19  96 NW3       29.54F FOG
ELBOW LAKE     LGT SNOW  20  19  95 CALM      29.57F
WADENA         LGT SNOW  19  18  93 N6        29.54F WCI  11
GLENWOOD       LGT SNOW  21  21 100 W3        29.54F
APPLETON       LGT SNOW  16  14  93 W7        29.60S WCI   6
ORTONVILLE     LGT SNOW  14  10  85 NW6       29.59F WCI   5
MADISON        FLURRIES  16  14  93 W8        29.61S WCI   5
WILLMAR        CLOUDY    18  16  93 W10       29.58S WCI   6
$$
MNZ033>034-036-042>043-049>051-058-059-250400-
   Central Minnesota

CITY           SKY/WX    TMP DP  RH WIND       PRES   REMARKS
ST CLOUD       LGT SNOW  26  26 100 E5        29.51F VSB 3/4 WCI  20
SAUK CENTRE    LGT SNOW  23  22  96 W6        29.54F WCI  15
PAYNESVILLE    LGT SNOW  25  24  98 W7        29.53F WCI  17
AITKIN         SNOW      21  19  93 CALM      29.54F VSB 1/2
PINE RIVER     LGT SNOW  19  18  93 N5        29.59F WCI  13
BRAINERD       LGT SNOW  24  20  84 NE5       29.53F VSB 3/4 WCI  18
STAPLES        LGT SNOW  19  19 100 N7        29.53F WCI  10
LONG PRAIRIE   LGT SNOW  23  21  93 NW5       29.53F VSB 3/4 WCI  17
LITTLE FALLS   LGT SNOW  27  23  86 CALM      29.52F VSB 1
LITCHFIELD     MIX PCPN  27  27 100 CALM      29.53F
BUFFALO        LGT SNOW  27  26  94 NE3       29.52F
MAPLE LAKE     LGT SNOW  28  28  97 CALM      29.52F VSB 1
HUTCHINSON     LGT SNOW  26  25  96 SW5       29.54F WCI  21
$$
MNZ037-044-045-052-053-250400-
   East Central Minnesota

CITY           SKY/WX    TMP DP  RH WIND       PRES   REMARKS
PRINCETON      LGT SNOW  28  27  93 CALM      29.51F VSB 1
CAMBRIDGE      LGT SNOW  30  27  86 CALM      29.52F VSB 1
RUSH CITY      LGT SNOW  28  27  96 E6        29.52F VSB 3/4 WCI  22
MOOSE LAKE     LGT SNOW  25  21  86 E7        29.53F VSB 1   WCI  17
HINCKLEY       LGT SNOW  27  27 100 NE5       29.53F VSB 1   WCI  21
CLOQUET        LGT SNOW  25  21  86 E17G24    29.53F WCI  11
MCGREGOR       CLOUDY    25  23  93 E7        29.54F VSB 1/2 WCI  17
$$
MNZ071>073-080-081-089-090-097-098-250400-
   Southwest Minnesota

CITY           SKY/WX    TMP DP  RH WIND       PRES   REMARKS
MONTEVIDEO     LGT SNOW  16  12  86 NW5       29.59S WCI   9
GRANITE FALLS  CLOUDY    16  13  90 W8        29.61F WCI   5
CANBY          CLOUDY    21  18  88 W14G21    29.60F WCI   8
MARSHALL       FLURRIES  19  17  92 W14       29.59F WCI   6
REDWOOD FALLS  CLOUDY    16  14  92 W12       29.58S FOG     WCI   3
OLIVIA         CLOUDY    18  14  86 W10       29.57S WCI   6
PIPESTONE      CLOUDY    16  12  86 NW20      29.60R WCI  -1
WORTHINGTON    MIX PCPN  19  17  92 W20       29.59F WCI   3
JACKSON        LGT SNOW  21  19  93 W17       29.58F WCI   7
TRACY          CLOUDY    22  19  91 W13G18    29.58S WCI   9
SLAYTON        CLOUDY    19  17  91 W20G26    29.58F FOG     WCI   3
$$
MNZ065>067-074>077-082>085-091>093-250400-
   South Central Minnesota

CITY           SKY/WX    TMP DP  RH WIND       PRES   REMARKS
MANKATO        LGT SNOW  25  23  92 W8        29.54S FOG     WCI  16
NEW ULM        CLOUDY    19  18  93 W16       29.56S FOG     WCI   5
ST JAMES       MOCLDY    21  19  93 SW15      29.58S FOG     WCI   8
FAIRMONT       MOCLDY    22  19  89 W22       29.58S FOG     WCI   6
GLENCOE        LGT SNOW  27  27 100 CALM      29.52F
FARIBAULT      LGT SNOW  27  27 100 CALM      29.50F
OWATONNA       LGT SNOW  30  30 100 S6        29.49F WCI  24
WASECA         LGT SNOW  30  30 100 W23G32    29.52F WCI  17
ALBERT LEA       N/A     27  25  93 W8G16     29.52S WCI  18
$$
MNZ078>079-086>088-094>096-250400-
   Southeast Minnesota

CITY           SKY/WX    TMP DP  RH WIND       PRES   REMARKS
ROCHESTER      LGT SNOW  31  31 100 S7        29.50F FOG     WCI  24
RED WING       LGT SNOW  30  28  93 CALM      29.51F
STANTON        LGT SNOW  29  28  93 CALM      29.49F
DODGE CENTER   LGT SNOW  30  28  93 S3        29.48F
WINONA         LGT SNOW  34  34 100 CALM      29.52F VSB 1
AUSTIN         LGT SNOW  30  30 100 SW8       29.51F WCI  23
PRESTON        LGT SNOW  32  31  96 S3        29.51F
$$
ABBREVIATIONS USED IN REMARKS
   TC - TEMPERATURES IN CELSIUS
  WCI - WIND CHILL INDEX
   HX - HEAT INDEX
  VSB - VISIBILITY
$$




USA.gov is the U.S. government's official web portal to all federal, state and local government web resources and services.